Location: Platte
(43.3870°N, 98.8440°W)
Time: 01:23:10
(UTC-05:00)

Daily predictions for brighter satellites

Satellite Brightness Start Highest point End
(mag) Time Altitude Azimuth Time Altitude Azimuth Time Altitude Azimuth
ALOS 2 4.3 00:02:49 21° E 00:03:37 22° ENE 00:06:58 10° NNE
SL-8 R/B 4.3 00:00:45 10° WNW 00:05:30 54° NNE 00:08:29 22° E
SL-23 DEB 4.3 00:02:55 10° SW 00:09:10 48° ENE 00:11:37 10° ENE
Cosmos 1741 Rocket 4.2 00:08:11 49° SE 00:08:43 52° ESE 00:13:53 10° NNE
H-2A R/B 2.9 00:09:27 31° SW 00:11:01 39° W 00:15:45 10° NNW
Meteor 2-5 Rocket 4.2 00:11:10 40° ESE 00:12:12 44° E 00:17:41 10° NNE
Cosmos 1842 Rocket 3.4 00:14:04 10° N 00:18:28 85° W 00:18:45 77° SSW
Cosmos 1092 Rocket 4.0 00:17:40 47° SSE 00:19:36 75° E 00:25:54 10° N
Terra 3.0 00:18:26 28° SW 00:19:42 32° W 00:23:59 10° NNW
Cosmos 1656 Rocket 3.8 00:14:54 10° NNW 00:20:35 65° ENE 00:22:04 47° ESE
Cosmos 1733 4.1 00:17:10 10° N 00:20:29 39° ENE 00:20:29 39° ENE
Cosmos 1570 Rocket 4.0 00:17:35 10° NNW 00:22:59 84° WSW 00:24:00 60° S
Cosmos 1850 Rocket 3.9 00:26:28 63° S 00:27:16 78° ESE 00:32:31 10° NNE
Nadezhda 4 Rocket 4.2 00:29:34 37° SSW 00:32:06 67° W 00:38:26 10° N
NOSS 3-2 (C) 4.4 00:35:49 30° ESE 00:35:49 30° ESE 00:41:05 10° NE
BREEZE-M DEB (TANK) 4.5 00:11:11 10° WSW 00:36:29 88° NNW 00:41:38 10° ENE
Cosmos 1470 3.0 00:34:28 10° N 00:37:54 68° NNW 00:37:54 68° NNW
Cosmos 2369 Rocket 4.1 00:34:47 10° WNW 00:38:24 18° W 00:40:04 16° WSW
CZ-4C R/B 3.2 00:40:01 30° E 00:40:01 30° E 00:44:24 10° NE
Cosmos 1655 Rocket 4.2 00:38:30 48° SE 00:39:51 57° E 00:45:59 10° NNE
Cosmos 1689 Rocket 4.1 00:40:50 27° NE 00:40:50 27° NE 00:42:48 10° N
Atlas Centaur 2 4.0 00:36:09 10° WSW 00:40:54 27° SW 00:40:54 27° SW
Helios 1A Rocket 4.4 00:41:39 10° NE 00:44:16 26° ENE 00:44:16 26° ENE
Cosmos 1953 4.0 00:42:30 10° NW 00:45:41 23° W 00:45:51 23° W
COSMOS 2487 3.5 00:50:23 43° NNE 00:50:23 43° NNE 00:52:55 10° NNE
Cosmos 1140 Rocket 4.1 00:49:15 36° WSW 00:51:01 52° WNW 00:56:10 10° N
Cosmos 1766 Rocket 4.3 00:54:16 43° ENE 00:54:16 43° ENE 00:58:10 10° NNE
Meteor 1-16 Rocket 4.1 00:49:58 10° N 00:55:36 80° E 00:56:33 62° SSE
Cosmos 405 Rocket 4.3 01:00:15 27° ENE 01:00:15 27° ENE 01:02:38 10° NNE
Cosmos 1340 3.4 00:59:47 51° NW 00:59:47 51° NW 01:02:59 10° N
COSMOS 2406 3.9 01:03:09 31° WSW 01:05:34 51° WNW 01:11:10 10° NNE
H-2A R/B 2.7 01:03:08 10° NNE 01:06:20 59° N 01:06:20 59° N
Cosmos 2278 4.3 01:01:32 10° NNW 01:07:04 50° ENE 01:08:41 39° ESE
Landsat 5 3.7 01:08:05 63° N 01:08:05 63° N 01:11:33 10° N
Cosmos 2221 2.6 01:04:32 10° NNW 01:08:31 68° NW 01:08:31 68° NW
Cosmos 1818 4.2 01:04:18 10° NNW 01:09:40 50° NE 01:11:27 36° E
Cosmos 1076 Rocket 3.7 01:11:16 65° NE 01:11:16 65° NE 01:15:02 10° NNE
Cosmos 2026 Rocket 3.9 01:10:43 56° SSW 01:12:04 79° W 01:18:10 10° N
Cosmos 2228 Rocket 3.5 01:09:13 10° N 01:13:23 51° ENE 01:13:23 51° ENE
Lacrosse 4 Rocket 4.3 01:14:17 10° WNW 01:16:04 12° NW 01:17:53 10° NNW
ATLAS 3B R/B 4.4 01:10:39 10° W 01:17:28 34° NW 01:24:06 10° NNE
Okean 3 Rocket 4.4 01:17:23 39° W 01:17:37 39° WNW 01:21:47 10° N
ISS -0.6 01:16:54 10° WNW 01:19:28 21° N 01:22:02 10° NE
NOSS 3-2 (A) 3.4 01:19:14 60° S 01:20:20 73° ESE 01:26:59 10° NE
Cosmos 1707 3.9 01:21:54 38° WNW 01:21:54 38° WNW 01:25:16 10° N
CZ-4B R/B 2.8 01:24:39 38° NW 01:24:39 38° NW 01:27:13 10° NNW
Cosmos 1607 4.4 01:24:11 30° WSW 01:27:10 57° NW 01:33:18 10° NNE
Cosmos 2082 Rocket 3.2 01:28:50 31° ESE 01:28:56 31° ESE 01:33:52 10° NE
Cosmos 1697 Rocket 4.3 01:25:31 10° N 01:30:26 29° NE 01:33:56 16° ESE
Cosmos 1763 Rocket 4.1 01:28:09 10° NNW 01:33:22 51° ENE 01:34:31 43° ESE
ALOS 2 3.6 01:40:13 36° W 01:40:13 36° W 01:43:49 10° NNW
Cosmos 1833 Rocket 3.8 01:40:04 30° ESE 01:40:19 30° ESE 01:45:09 10° NE
Meteor 1-24 Rocket 4.1 01:40:40 48° SW 01:42:01 60° WNW 01:47:55 10° N
Cosmos 1867 3.7 01:45:00 55° ESE 01:45:03 55° ESE 01:50:24 10° NE
Cosmos 1943 Rocket 4.4 01:44:34 10° WNW 01:46:21 12° W 01:46:33 12° W
USA 215 4.4 01:45:33 10° ENE 01:50:36 24° ESE 01:50:36 24° ESE
Cosmos 1408 Rocket 4.5 01:51:09 39° WNW 01:51:13 39° WNW 01:55:26 10° N
Cosmos 1354 Rocket 4.2 01:54:49 55° ESE 01:55:09 56° ESE 02:00:22 10° NNE
Cosmos 1553 Rocket 4.3 01:49:05 10° NNW 01:55:13 54° W 01:56:31 47° SW
Cosmos 1674 4.1 01:57:00 32° ENE 01:57:00 32° ENE 01:59:43 10° NNE
CZ-2C R/B 3.5 01:55:21 47° SE 01:56:44 61° ENE 02:02:21 10° N
Lacrosse 5 3.2 01:57:21 10° NW 02:02:04 37° NNE 02:06:46 10° E
Cosmos 1503 Rocket 4.1 02:01:51 60° SE 02:02:18 62° ESE 02:07:34 10° NNE
Cosmos 1656 3.9 02:01:12 10° NNW 02:06:54 67° ENE 02:08:39 44° SE
Cosmos 2315 Rocket 4.0 02:05:03 10° N 02:11:25 76° E 02:13:14 49° SSE
Cosmos 841 Rocket 3.3 02:06:40 10° NNW 02:11:57 83° WSW 02:12:30 72° S
Meteor 2-20 Rocket 4.4 02:10:48 57° S 02:12:11 89° W 02:18:24 10° N
Meteor 1-21 Rocket 4.2 02:12:52 60° SSW 02:13:55 80° W 02:19:39 10° N
Cosmos 724 4.2 02:14:16 57° SSE 02:15:03 64° ESE 02:20:52 10° NE
CZ-2C R/B 2.7 02:09:43 10° N 02:15:17 73° WNW 02:16:17 58° SW
Meteor 2-2 Rocket 4.2 02:10:48 10° NNW 02:16:31 81° W 02:17:35 61° S
Cosmos 1743 Rocket 4.3 02:17:15 43° WNW 02:17:15 43° WNW 02:21:30 10° N
Cosmos 1151 Rocket 3.0 02:13:21 10° N 02:17:28 80° NNE 02:17:28 80° NNE
Cosmos 2322 Rocket 4.5 02:18:19 10° N 02:22:31 21° NE 02:26:41 10° E
Cosmos 2058 3.9 02:23:26 36° E 02:23:34 36° E 02:27:25 10° NNE
Cosmos 2266 Rocket 4.2 02:23:05 46° SW 02:24:48 62° W 02:31:11 10° N
Cosmos 2151 3.1 02:25:31 67° E 02:25:31 67° E 02:29:42 10° NNE
CENTAUR R/B 3.0 02:24:34 39° SE 02:25:46 44° ESE 02:32:07 10° NE
NOSS 3-2 (C) 4.0 02:23:13 32° WSW 02:26:03 55° NW 02:32:42 10° NNE
In-Cosmos 22 4.5 02:26:02 47° WSW 02:27:06 55° WNW 02:32:40 10° N
CZ-4C R/B 3.0 02:25:10 29° W 02:27:34 46° NW 02:33:27 10° NNE
Cosmos 2369 4.1 02:22:38 10° NW 02:27:58 44° WSW 02:28:07 44° WSW
Timation 2 Rocket 4.5 02:25:47 37° WSW 02:28:29 59° WNW 02:35:14 10° NNE
Genesis I 3.7 02:25:46 10° NW 02:28:57 56° NW 02:28:57 56° NW
Lacrosse 5 rocket 3.9 02:28:57 10° NNW 02:32:27 23° NNE 02:36:03 10° E
Cosmos 1500 Rocket 4.3 02:35:18 40° WNW 02:35:18 40° WNW 02:39:23 10° N
Sich 1 4.1 02:38:33 34° ESE 02:39:16 36° E 02:43:20 10° NNE
Cosmos 405 3.5 02:35:47 10° N 02:38:53 60° NNE 02:38:53 60° NNE
Cosmos 2344 3.7 02:37:44 36° SW 02:41:27 80° NW 02:50:29 10° NE
Cosmos 1908 4.1 02:37:54 10° NNW 02:40:52 40° WNW 02:40:52 40° WNW
H-2A R/B 3.8 02:45:24 22° SE 02:45:24 22° SE 02:52:40 10° E
PSLV R/B 3.9 02:41:32 10° NNE 02:46:07 59° E 02:46:43 54° SE
ASTEX 1 3.3 02:44:33 10° N 02:49:32 77° W 02:50:22 61° SSW
Cosmos 1437 Rocket 3.4 02:49:15 10° NNW 02:52:28 44° WNW 02:52:28 44° WNW
Cosmos 1980 Rocket 2.3 02:48:04 10° NNW 02:53:44 76° ENE 02:56:36 30° SE
ISS -0.7 02:54:06 10° NW 02:56:43 22° N 02:59:20 10° ENE
Cosmos 1300 2.6 02:55:22 10° N 02:59:14 79° E 02:59:19 79° ESE
ERS-2 2.9 02:56:16 10° NNE 02:59:49 43° E 03:00:00 43° ESE
Cosmos 1441 Rocket 4.2 03:01:01 35° WNW 03:01:01 35° WNW 03:04:39 10° N
Meteor 2-11 Rocket 4.5 03:00:08 10° NNW 03:06:14 65° W 03:08:16 42° SSW
NPP 4.1 03:02:38 10° NNE 03:07:56 53° E 03:10:03 34° SSE
Cosmos 2082 Rocket 3.0 03:10:40 29° WSW 03:12:53 40° WNW 03:18:14 10° NNE
Cosmos 1697 Rocket 3.0 03:09:12 10° NW 03:14:36 46° WSW 03:15:37 42° SW
SL-08 R/B 4.4 03:14:03 40° SSW 03:16:22 78° W 03:22:31 10° N
Cosmos 332 Rocket 3.6 03:12:59 10° NNW 03:17:49 80° WSW 03:19:19 44° S
Cosmos 2242 Rocket 3.4 03:15:51 10° N 03:20:17 88° W 03:21:25 50° S
Meteor 1-4 Rocket 3.9 03:18:04 10° N 03:21:37 38° ENE 03:23:26 23° SE
Cosmos 540 Rocket 3.6 03:16:55 10° NNW 03:21:57 53° WSW 03:23:04 44° SSW
BREEZE-M DEB (TANK) 3.6 03:19:25 10° WNW 03:22:30 79° NNE 03:32:46 10° ESE
Cosmos 1833 Rocket 3.5 03:21:45 29° WSW 03:24:03 42° WNW 03:29:25 10° NNE
SL-08 R/B 3.4 03:21:53 32° SSE 03:24:07 81° ENE 03:29:02 10° N
JB-3 4.3 03:21:03 10° N 03:25:03 67° WNW 03:25:38 57° WSW
Cosmos 1805 Rocket 4.1 03:25:25 40° WSW 03:26:09 43° WNW 03:30:25 10° N
Cosmos 1455 3.5 03:23:05 10° N 03:26:38 36° ENE 03:28:44 20° SE
Meteor 2-10 4.3 03:21:54 10° N 03:27:06 65° ENE 03:30:42 21° SSE
Aureole 1 Rocket 4.2 03:27:27 10° NW 03:31:45 36° WSW 03:32:31 35° SW
USA 215 3.2 03:27:41 10° NE 03:34:15 88° SE 03:37:56 29° SW
Cosmos 1726 2.3 03:30:43 10° NNW 03:34:18 49° W 03:34:21 49° W
ATLAS 5 CENTAUR R/B 3.7 03:32:15 15° SE 03:34:35 20° ESE 03:38:16 10° ENE
Cosmos 1633 Rocket 3.2 03:34:04 45° SW 03:35:07 58° W 03:39:31 10° N
Cosmos 2360 4.1 03:30:01 10° NNW 03:35:42 73° WSW 03:39:20 23° SSE
Cosmos 1707 Rocket 4.4 03:35:06 10° NNW 03:38:59 32° W 03:39:20 31° W
IRS-1C 4.2 03:36:03 10° NNE 03:41:25 72° ESE 03:44:15 28° S
SL-14 R/B 3.7 03:42:29 39° WSW 03:43:02 42° WNW 03:46:42 10° N
Cosmos 1666 Rocket 4.2 03:42:08 34° WSW 03:43:03 38° WNW 03:47:07 10° N
Cosmos 1869 4.0 03:39:35 10° N 03:43:28 50° E 03:46:06 19° SSE
Cosmos 1437 4.0 03:44:43 29° WNW 03:44:45 29° WNW 03:47:44 10° NNW
Lacrosse 5 2.0 03:40:17 10° NW 03:45:08 49° SW 03:48:16 21° SSE
BREEZE-M TANK 2.4 03:43:44 10° W 03:49:55 76° NNW 03:52:31 10° ENE
Cosmos 1470 Rocket 3.5 03:51:40 36° SSW 03:53:27 76° W 03:57:54 10° N
SL-16 R/B 2.2 03:48:22 10° NNW 03:54:06 87° ENE 03:59:46 10° SSE
Cosmos 1626 2.3 03:53:42 34° S 03:55:12 70° E 03:58:58 10° NNE
Cosmos 1703 3.5 03:54:39 39° SW 03:55:46 53° W 03:59:39 10° N
Cosmos 1933 Rocket 3.5 03:56:23 35° SSW 03:58:10 69° W 04:02:33 10° N
Resurs 1-4 Rocket 3.3 03:54:02 10° NNE 03:58:58 37° E 04:03:50 10° SSE
SL-16 R/B 3.1 03:54:40 10° SSE 04:00:48 61° ENE 04:06:59 10° N
Cosmos 968 Rocket 3.6 03:59:07 29° SW 04:01:34 59° WNW 04:06:40 10° NNE
Cosmos 2292 Rocket 3.3 04:00:52 30° SSE 04:02:07 55° E 04:05:32 10° NNE
USA 161 1.0 04:05:58 65° WNW 04:05:58 65° WNW 04:08:09 10° NNW
Cosmos 2322 Rocket 2.1 04:01:31 10° NNW 04:07:08 70° WSW 04:12:42 10° SSE
Cosmos 1271 Rocket 2.8 04:04:30 10° NNW 04:08:12 52° W 04:09:36 32° SSW
Cosmos 1933 4.1 04:04:34 10° N 04:08:31 50° ENE 04:12:25 10° SSE
Cosmos 371 Rocket 3.8 04:05:14 10° NW 04:09:43 38° WSW 04:11:44 26° SSW
EO 1 Del DPAF 3.5 04:06:20 13° SSE 04:09:47 72° ENE 04:13:43 10° N
Abrixas 4.1 04:08:09 14° WNW 04:10:28 33° N 04:13:19 10° ENE
Lacrosse 5 rocket 1.4 04:07:47 10° NW 04:12:12 85° SW 04:16:45 10° SE
Cosmos 1346 3.9 04:11:57 23° SSE 04:13:34 47° E 04:16:32 10° NNE
Spot 4 Rocket 4.0 04:10:34 10° N 04:15:43 78° WNW 04:19:11 21° SSW
CENTAUR R/B 3.4 04:11:44 16° WSW 04:16:27 42° NW 04:23:07 10° NNE
USA 129 4.2 04:18:27 15° NE 04:18:27 15° NE 04:18:55 10° NNE
Cosmos 923 Rocket 3.9 04:15:23 10° NNW 04:20:39 71° WSW 04:25:50 10° S
Okean 1-7 4.2 04:16:33 10° N 04:20:46 43° ENE 04:24:56 10° SSE
Cosmos 1709 Rocket 4.1 04:18:27 20° SSW 04:22:55 62° W 04:29:09 10° N
H-2A ROCKET BODY 3.5 04:25:48 12° S 04:25:48 12° S 04:26:24 10° SSE
Okean O Rocket 3.5 04:20:56 10° NE 04:24:44 27° E 04:28:29 10° SSE
Cosmos 304 Rocket 3.8 04:21:25 10° NNW 04:26:17 86° ENE 04:31:07 10° SSE
Cosmos 1680 Rocket 3.4 04:25:11 10° NNW 04:30:24 76° WSW 04:35:36 10° SSE
Cosmos 1862 Rocket 4.4 04:27:56 10° NNW 04:31:58 33° W 04:34:21 20° SW
ERS-2 4.3 04:31:14 10° NNW 04:33:17 14° WNW 04:34:52 12° W
ISS -3.0 04:30:20 10° NW 04:33:35 68° NNE 04:36:50 10° ESE
Cosmos 1777 Rocket 4.4 04:31:11 19° SW 04:34:44 50° WNW 04:39:54 10° N
Cosmos 1980 Rocket 3.7 04:33:46 10° WNW 04:37:01 16° W 04:38:18 15° WSW
Cosmos 2360 Rocket 2.3 04:32:51 10° NNW 04:38:31 79° ENE 04:44:09 10° SSE
CZ-2D R/B 2.1 04:37:25 10° NNE 04:42:41 89° ESE 04:47:58 10° SSW
ADEOS 4.4 04:39:36 10° N 04:44:22 37° WNW 04:48:12 15° SW
Thor Agena Rocket 4.5 04:39:55 10° SE 04:45:02 53° ENE 04:50:11 10° N
Cosmos 2221 Rocket 3.6 04:40:50 10° NNW 04:45:18 65° W 04:49:46 10° S
CZ-4B R/B 4.4 04:40:21 10° NNE 04:45:27 40° E 04:50:36 10° SSE
ARIANE 5 R/B 2.7 04:41:36 10° N 04:46:38 59° WNW 04:50:59 13° SSW
IRS-1D 3.7 04:41:22 10° N 04:46:42 67° WNW 04:51:33 12° SSW
GPS 2-05 Rocket1 4.4 04:49:30 16° SSW 04:50:52 20° S 04:53:26 10° ESE
Cosmos 2322 3.7 04:45:40 10° NNW 04:51:25 85° WSW 04:57:09 10° SSE
Cosmos 2219 3.9 04:46:27 10° S 04:51:58 52° ESE 04:57:32 10° NE
MTI 4.0 04:48:40 10° S 04:51:58 55° W 04:55:18 10° NNW
CZ-2C R/B 3.9 04:49:51 10° SSE 04:54:18 75° ENE 04:58:52 10° N
UNK 3.9 04:50:58 10° S 04:55:25 50° W 04:59:53 10° NNW
BREEZE-M DEB (TANK) 3.7 04:48:12 10° W 04:56:23 68° N 04:59:33 10° E
Cosmos 1869 Rocket 3.7 04:54:31 11° SSW 04:58:40 61° W 05:03:04 10° N
Cosmos 1455 4.1 04:59:52 10° NW 05:02:02 15° W 05:03:44 12° WSW
Cosmos 1898 Rocket 3.9 04:57:12 10° S 05:02:20 65° ESE 05:07:28 10° NNE
OAO 3 Rocket 4.1 05:01:42 12° WSW 05:05:22 29° S 05:09:25 10° SE
Cosmos 1937 Rocket 4.1 05:06:48 10° S 05:11:59 57° ESE 05:17:12 10° NNE
Cosmos 2150 Rocket 4.1 05:09:08 10° SSW 05:14:24 87° ESE 05:19:50 10° NNE
USA 215 4.3 05:10:55 10° NE 05:16:51 38° NNW 05:22:47 10° W
ATLAS 5 CENTAUR R/B 2.2 05:13:53 10° SW 05:18:44 58° NW 05:23:59 10° NNE
UNKNOWN OBJECT B 3.3 05:15:32 10° N 05:19:08 43° WNW 05:22:47 10° SW
COSMOS 2428 2.8 05:15:08 10° NNW 05:20:51 84° ENE 05:26:32 10° SSE
ADEOS II 4.2 05:17:12 10° NE 05:21:33 26° E 05:25:52 10° SSE
Coronas F rocket 4.1 05:19:48 10° SE 05:21:51 19° E 05:23:56 10° NE
Cosmos 1892 3.2 05:19:33 10° S 05:23:24 62° E 05:27:16 10° NNE
CZ-2D R/B 3.7 05:22:33 10° N 05:26:39 52° WNW 05:30:36 10° SSW
ATLAS CENTAUR R/B 1.6 05:26:00 10° NW 05:30:45 89° SW 05:35:05 10° SSE
Nadezhda 3 Rocket 4.0 05:24:47 10° N 05:30:58 80° W 05:37:06 10° S
